This is the latest recevied weather packets stored in our database for station/object KC0OOO-WX. If no packets are shown the sender has not sent any weather packets the latest 10 day(s).
| Time | Temp. | Humidity | Pressure | Rain* | Wind** | Luminosity | Snow |
|---|---|---|---|---|---|---|---|
| 1778006046 | 13.89° C | 29% | 1013.5 hPa | 0 mm | - | - | - |
| 1778005446 | 13.89° C | 29% | 1013.5 hPa | 0 mm | - | - | - |
| 1778004846 | 13.33° C | 31% | 1013.5 hPa | 0 mm | - | - | - |
| 1778004246 | 13.33° C | 30% | 1013.5 hPa | 0 mm | - | - | - |
| 1778003646 | 13.89° C | 29% | 1013.5 hPa | 0 mm | - | - | - |
| 1778003046 | 13.33° C | 31% | 1013.9 hPa | 0 mm | - | - | - |
| 1778002446 | 13.33° C | 30% | 1013.9 hPa | 0 mm | - | - | - |
| 1778001846 | 12.78° C | 32% | 1013.9 hPa | 0 mm | - | - | - |
| 1778001246 | 11.67° C | 36% | 1013.9 hPa | 0 mm | - | - | - |
| 1778000646 | 11.67° C | 36% | 1013.9 hPa | 0 mm | - | - | - |
| 1778000046 | 11.67° C | 38% | 1013.9 hPa | 0 mm | - | - | - |
| 1777999416 | 11.67° C | 37% | 1014.2 hPa | 0 mm | - | - | - |
| 1777998786 | 11.11° C | 38% | 1014.2 hPa | 0 mm | - | - | - |
| 1777998156 | 11.11° C | 38% | 1014.2 hPa | 0 mm | - | - | - |
| 1777997556 | 11.11° C | 38% | 1014.2 hPa | 0 mm | - | - | - |
| 1777996956 | 10.56° C | 43% | 1014.2 hPa | 0 mm | - | - | - |
| 1777996356 | 10° C | 45% | 1014.3 hPa | 0 mm | - | - | - |
| 1777995756 | 8.89° C | 48% | 1014.6 hPa | 0 mm | - | - | - |
| 1777995156 | 8.33° C | 48% | 1014.6 hPa | 0 mm | - | - | - |
| 1777994556 | 8.33° C | 50% | 1014.6 hPa | 0 mm | - | - | - |
| 1777993956 | 7.78° C | 50% | 1014.6 hPa | 0 mm | - | - | - |
| 1777993356 | 7.22° C | 50% | 1014.9 hPa | 0 mm | - | - | - |
| 1777992756 | 6.67° C | 57% | 1014.9 hPa | 0 mm | - | - | - |
| 1777992155 | 6.67° C | 59% | 1015.2 hPa | 0 mm | - | - | - |
| 1777991555 | 6.11° C | 61% | 1015.2 hPa | 0 mm | - | - | - |
* Rain latest hour (hover to see other rain measurements)
** Current wind speed in m/s (hover to see current wind gust speed)